Location: Bermeries
(50.2863°N, 3.7551°E)
Time: 13:52:11
(UTC+00:00)

Helios 1A Rocket - Pass Details

Date: 23 May 2024
Orbit: 520 x 543 km, 98.3° (Epoch: 18 June)

Event Time Altitude Azimuth Distance (km) Brightness Sun altitude
Exits shadow 01:44:36 19° 245° (WSW) 1,328 4.3 -14.1°
Maximum altitude 01:45:36 21° 266° (W) 1,257 4.3 -14.0°
Drops below altitude 10° 01:48:33 10° 316° (NW) 1,795 5.6 -13.7°
Sets 01:51:05 0° 333° (NNW) 2,686 6.8 -13.5°
